Temperature
26 24 24 25 25 26 26 25 25 25 25 24 23 23 22 22 22 22 22 22 22 23 23 22 22 22 21 21 21 20 20 20 19 19 19 18 18 18 18 18 18 18 18 18
24 24 25 25 25 26 25 25 25 25 25 24 23 23 22 22 22 22 22 22 23 23 23 23 22 22 22 22 21 21 20 20 19 19 19 19 18 18 18 18 18 18 18 18
25 25 26 26 26 26 26 25 25 25 24 23 24 23 23 22 22 23 23 23 23 23 23 23 23 22 22 22 21 21 21 20 20 19 19 18 18 18 18 18 18 18 18 17
25 25 26 27 27 26 26 26 25 25 24 22 24 23 22 21 21 21 22 23 23 23 23 24 23 23 22 22 21 21 21 20 20 19 19 18 18 18 18 18 18 18 18 18
25 26 26 27 27 26 26 25 24 24 23 22 22 22 22 21 21 21 22 23 23 24 24 24 24 24 23 22 21 21 20 20 20 19 19 19 18 18 18 18 18 17 18 18
25 25 26 26 26 26 25 23 22 20 20 22 22 22 22 20 21 22 22 23 24 24 24 24 24 24 23 22 21 21 21 20 20 19 19 19 18 18 18 18 18 18 18 18
25 25 26 26 26 26 24 22 21 22 21 21 21 21 21 22 21 22 22 23 24 24 24 24 24 23 23 22 22 21 21 20 20 19 19 19 19 18 18 18 18 18 18 18
24 23 25 26 26 25 23 22 22 22 22 21 21 21 22 22 22 23 23 23 24 24 24 24 24 24 23 23 22 21 21 20 20 20 19 19 19 19 19 18 18 18 18 18
22 23 24 25 26 24 23 21 21 19 20 21 21 21 21 22 21 21 22 22 23 24 24 25 24 24 24 23 22 22 21 21 20 20 19 19 19 19 19 19 18 18 18 18
21 23 24 24 25 24 23 19 18 19 20 21 22 22 21 22 21 20 20 21 22 23 24 24 24 24 23 23 22 22 21 21 20 20 19 19 19 19 18 18 18 18 18 18
21 22 24 24 25 24 22 21 18 17 19 20 21 21 21 20 20 20 20 21 22 23 23 24 24 23 23 23 22 21 21 21 20 20 19 19 19 19 18 18 18 18 18 18
19 18 20 22 23 23 23 21 19 21 20 18 19 21 21 20 19 20 20 21 22 23 23 23 23 23 23 22 22 21 21 21 20 20 19 19 19 18 18 18 18 18 18 18
19 18 20 22 22 22 22 21 19 17 16 16 19 21 21 19 19 20 20 21 21 22 22 23 23 23 22 22 22 22 21 21 20 20 19 19 19 18 18 18 18 17 17 17
18 17 19 21 20 21 22 21 19 19 18 18 19 21 20 19 19 19 20 21 21 21 22 22 22 22 22 22 22 22 21 21 20 20 19 19 19 19 18 18 18 17 17 17
17 18 19 19 20 21 22 21 21 21 19 20 20 19 20 19 19 20 20 21 21 21 21 22 22 22 22 22 22 22 21 21 20 20 19 19 19 19 18 18 17 17 17 17
15 17 19 20 20 21 21 21 21 21 20 20 20 20 19 19 20 20 20 20 20 21 22 22 22 22 22 22 22 22 21 21 20 20 19 19 19 18 18 18 17 17 17 17
14 16 17 18 19 21 21 20 21 21 20 20 20 19 17 17 18 19 20 20 21 21 22 22 22 22 22 22 22 21 21 21 20 20 19 19 19 18 18 18 17 17 17 17
14 14 14 16 19 20 19 19 20 19 18 18 18 17 17 17 18 20 21 21 21 21 22 22 22 22 22 22 22 21 21 20 20 20 19 19 19 18 18 18 17 17 17 17
13 14 14 14 17 18 19 19 18 18 18 17 16 16 16 17 18 20 21 21 21 21 22 22 22 22 22 22 21 21 20 20 20 19 19 19 19 18 18 18 17 17 17 16
12 12 13 14 17 18 18 18 18 18 18 17 16 15 16 16 17 18 20 20 21 21 21 22 22 22 22 21 21 20 20 20 19 19 19 18 18 18 18 17 17 17 16 16
14 13 14 14 16 16 17 17 18 19 18 17 16 16 16 16 17 18 19 20 20 21 21 21 21 21 21 21 20 20 19 19 19 19 18 18 18 17 17 17 16 16 16 15
13 13 13 13 15 16 17 16 16 16 17 17 16 16 16 17 17 18 19 19 19 20 20 20 21 20 20 20 20 20 19 19 19 18 18 18 17 17 17 16 16 16 15 15
12 12 12 13 14 14 15 15 16 16 16 16 16 16 17 17 17 18 18 18 19 19 19 19 20 20 20 19 19 19 19 18 18 18 17 17 17 16 16 16 16 15 15 15
12 12 11 12 13 14 15 16 16 16 16 17 17 16 17 16 17 17 17 18 18 18 18 18 19 19 18 19 19 18 18 18 18 17 17 17 16 16 16 15 15 15 15 14
12 12 11 12 13 14 15 15 16 16 16 16 16 16 16 16 16 17 16 17 17 17 17 18 18 18 18 18 18 18 17 17 17 17 16 16 16 15 15 15 14 14 14 14
10 11 11 12 13 12 14 15 15 15 16 16 16 16 16 16 16 16 16 16 17 17 17 17 17 17 16 16 17 17 17 17 16 16 16 15 15 15 15 14 14 14 13 13
Wind_Speed
5 5 2 5 6 5 4 3 3 4 1 3 5 5 5 8 8 8 9 9 9 10 7 6 8 8 8 8 8 8 8 7 6 4 3 3 2 2 1 2 4 5 5 5
6 1 6 5 5 4 4 2 2 2 2 2 2 2 2 8 10 11 11 10 10 8 5 6 8 8 9 9 9 8 8 8 7 5 3 3 2 2 2 1 2 4 5 5
5 5 2 3 3 3 3 5 4 3 2 5 3 4 2 3 5 6 8 8 8 11 10 9 9 10 9 10 11 10 8 8 7 6 3 3 2 1 0 1 1 2 4 4
4 4 2 2 2 4 4 4 6 4 4 2 3 2 6 4 5 8 9 10 10 11 10 9 10 10 11 11 9 8 8 7 7 7 6 5 4 3 3 2 2 2 3 3
4 3 2 3 5 6 4 3 5 4 5 3 3 2 8 2 5 10 11 12 12 11 11 11 12 11 10 9 9 8 8 7 7 7 7 6 4 3 2 1 1 2 2 3
5 3 4 5 2 4 5 8 8 7 5 1 2 3 7 5 8 8 9 10 11 10 10 10 9 8 8 8 8 8 8 7 7 7 7 7 6 5 4 3 3 2 1 1
3 4 3 3 2 3 6 7 5 4 4 5 2 3 9 8 7 8 8 9 9 9 9 9 9 10 10 9 9 8 9 8 7 8 7 7 7 7 6 5 4 3 2 2
3 6 4 3 6 6 5 9 9 6 6 5 2 5 8 6 5 3 4 5 5 7 8 10 10 11 11 11 10 10 9 8 7 8 7 6 7 5 5 5 4 4 3 3
7 6 5 3 3 9 7 4 7 8 4 1 5 7 8 3 4 1 1 2 4 7 9 9 9 9 10 10 10 10 10 8 7 7 6 6 6 6 5 5 4 3 3 3
9 4 5 4 5 5 5 9 7 7 7 3 5 5 5 6 5 3 2 3 4 5 6 6 6 7 8 8 8 8 8 8 7 7 7 6 6 6 5 4 4 4 3 2
5 5 4 4 3 4 5 5 6 5 6 7 4 7 6 7 6 6 6 4 4 5 6 6 6 6 6 6 7 7 7 6 6 6 6 6 5 5 5 4 4 4 3 3
3 5 2 5 3 1 4 7 8 6 4 5 5 8 4 4 4 4 4 2 2 3 4 5 6 6 6 5 5 6 7 7 6 6 5 5 5 5 5 4 4 4 3 3
5 6 2 6 5 4 3 3 5 7 6 6 5 7 3 2 2 2 2 2 2 3 4 4 6 7 7 6 6 6 6 6 6 5 5 5 5 5 5 4 4 4 4 3
5 5 6 8 7 3 1 2 5 6 5 5 7 7 6 5 4 4 3 3 3 4 4 5 5 6 6 7 7 7 6 6 6 6 6 6 5 5 5 4 4 4 4 3
5 4 2 3 3 2 2 3 5 5 8 8 8 7 7 6 6 5 3 3 3 3 4 5 6 5 5 6 6 6 6 6 6 6 6 6 5 5 5 5 4 4 3 3
4 4 2 1 2 0 1 2 3 3 4 4 3 5 5 5 2 2 3 4 4 5 5 5 5 5 6 6 6 5 6 6 7 7 6 5 6 6 5 5 5 4 4 3
2 4 3 2 4 2 2 3 2 1 1 4 4 5 3 2 4 5 5 5 6 6 5 6 6 6 6 6 6 6 6 6 8 8 7 6 6 6 5 5 5 4 4 3
5 4 4 2 2 4 6 2 1 2 1 0 1 2 2 4 6 5 4 4 4 4 5 6 6 5 4 4 5 5 6 7 7 7 7 7 7 6 6 6 5 4 3 3
4 7 4 4 3 3 4 1 1 1 1 1 1 3 4 4 3 3 1 2 5 5 6 6 6 5 5 5 4 5 6 7 7 7 7 7 8 7 6 6 5 4 4 3
5 4 5 5 4 6 6 3 2 3 2 2 1 3 4 3 2 5 5 4 4 3 4 4 4 5 6 5 5 5 5 6 7 7 7 7 7 8 7 6 5 4 4 3
4 4 3 4 4 6 5 5 2 4 5 4 3 3 3 2 5 5 5 5 4 3 2 3 5 5 6 6 7 6 5 6 6 6 6 6 6 7 6 5 4 5 4 4
2 2 3 4 4 6 3 2 2 5 3 3 3 3 3 3 4 4 3 3 3 2 1 1 4 4 4 6 7 7 7 6 5 6 6 6 6 6 6 6 5 5 5 5
3 5 5 6 6 4 3 3 4 3 3 3 2 3 2 3 3 3 2 3 2 1 0 1 3 4 4 6 8 8 7 6 6 7 7 6 6 5 5 6 6 5 5 4
2 1 2 2 4 4 5 4 3 2 3 3 3 3 2 3 3 3 3 2 2 2 1 1 2 3 3 4 5 5 6 8 8 7 7 6 6 5 4 3 4 5 4 4
4 1 1 3 5 5 5 4 3 2 1 1 2 2 2 2 2 2 2 2 2 1 1 0 2 2 2 2 3 3 5 7 7 7 6 5 5 6 5 4 3 4 4 5
4 5 5 6 6 4 6 6 4 2 2 2 1 3 3 2 2 1 2 2 1 1 1 1 1 2 1 1 2 3 4 6 7 6 5 5 4 4 4 4 3 3 2 2
Wind_Direction
37 74 167 207 188 177 167 177 230 248 228 160 208 229 205 179 187 198 206 205 210 218 213 184 182 178 170 171 177 182 177 169 158 153 162 169 200 216 219 224 224 217 211 205
41 267 224 193 170 148 155 181 249 311 23 135 199 260 216 190 202 203 206 210 212 213 199 187 181 179 179 181 184 183 182 175 173 171 164 166 167 195 206 217 223 224 216 203
182 233 204 155 151 156 200 190 201 201 41 53 70 342 275 228 219 213 212 211 208 204 204 195 187 189 184 186 188 188 186 180 177 165 141 121 94 59 77 219 233 237 216 202
220 248 187 159 200 160 257 216 173 152 104 12 70 285 286 248 243 225 217 211 211 209 202 197 191 191 192 193 185 180 180 178 175 165 168 169 175 193 213 208 213 231 207 194
234 213 174 211 222 177 208 99 110 99 108 64 41 143 287 314 252 244 226 217 215 209 200 198 198 195 192 185 180 179 175 180 176 176 181 181 185 194 192 177 191 222 214 203
236 246 208 206 200 159 124 72 57 52 68 36 249 167 274 246 234 245 227 219 214 206 198 195 190 179 181 176 176 175 178 186 181 182 183 187 189 187 182 191 198 213 218 218
307 303 264 176 113 54 98 92 43 13 15 253 262 185 249 257 250 236 228 220 213 199 191 187 179 180 182 179 178 178 182 190 187 187 192 194 194 191 195 201 202 201 204 216
185 280 260 196 177 177 166 140 155 182 209 265 324 234 256 275 281 248 220 206 193 192 192 191 188 186 185 183 179 181 189 192 188 192 199 196 193 195 205 206 200 201 205 213
175 245 283 256 196 144 138 158 157 133 147 170 280 285 301 314 344 1 142 157 188 190 190 192 189 187 184 184 184 185 187 190 192 195 194 197 195 197 202 199 194 198 203 206
157 221 292 308 76 42 132 141 106 123 145 215 285 284 265 278 277 279 236 214 210 191 185 184 181 183 184 185 181 178 183 192 195 193 196 202 197 195 195 192 195 197 198 189
138 163 301 10 143 170 105 94 101 110 145 155 221 266 232 230 230 230 233 225 208 194 187 173 163 165 168 169 171 178 182 187 191 194 194 191 189 187 184 191 199 194 186 174
128 128 232 270 282 253 151 155 145 147 189 167 175 256 269 231 232 227 238 243 205 184 177 165 155 150 152 163 173 181 185 188 189 187 184 182 175 173 178 188 191 179 175 170
127 113 79 339 342 10 87 123 129 120 116 147 168 257 313 348 305 254 233 225 185 157 148 148 150 156 168 176 180 180 181 184 176 172 176 174 171 174 180 179 172 162 160 155
112 105 158 196 217 214 178 156 149 126 143 185 213 244 299 309 293 271 234 209 174 159 150 152 161 168 174 182 182 181 181 173 167 170 173 175 178 177 169 161 156 158 157 151
86 115 164 219 238 199 196 200 181 178 179 181 218 221 253 259 247 245 229 186 168 167 166 177 178 175 177 184 180 176 177 168 166 167 174 180 172 160 152 154 156 154 150 149
60 117 94 6 350 219 229 264 205 196 175 194 209 248 263 279 268 244 219 190 193 199 195 196 187 182 185 187 180 174 175 172 162 167 174 168 158 154 157 158 156 148 142 134
68 112 103 240 309 40 261 252 203 188 196 175 201 238 291 313 291 256 232 208 208 209 200 193 198 200 199 190 179 177 176 166 164 166 165 161 160 161 163 161 156 156 154 147
137 113 124 138 85 214 240 275 192 143 110 262 233 269 257 265 272 258 219 203 220 223 213 204 202 201 198 186 172 164 160 163 165 165 164 164 162 165 163 159 162 163 156 156
155 139 125 128 165 266 293 339 81 155 264 7 339 318 321 325 347 327 282 233 232 233 223 213 198 189 185 176 165 155 158 159 162 170 173 172 170 167 165 170 174 167 159 162
66 97 120 132 159 219 243 285 288 152 253 327 331 304 316 9 12 287 305 303 291 271 226 200 178 163 166 169 155 153 161 164 174 177 177 172 168 167 173 176 173 159 154 162
35 51 118 155 194 249 268 302 21 151 244 285 269 272 274 246 233 265 304 309 300 295 262 178 161 168 176 164 158 165 173 189 184 164 160 163 165 166 167 164 156 149 148 144
175 146 164 147 179 241 307 25 158 227 262 255 262 264 270 278 290 295 306 317 321 328 333 147 152 170 167 159 164 176 193 195 166 154 156 163 164 162 157 155 150 146 149 149
197 193 190 190 212 250 285 254 263 237 247 264 257 283 297 309 304 312 324 332 337 334 334 166 156 165 166 170 173 184 198 174 161 156 158 160 152 149 150 155 154 151 155 161
283 175 164 258 274 284 297 297 294 257 242 264 264 281 301 288 291 309 321 335 349 343 317 177 155 165 180 183 182 189 174 163 158 160 158 157 150 141 138 145 154 159 170 175
240 212 195 252 279 317 318 313 305 318 341 342 325 308 284 265 277 281 306 317 332 336 352 97 167 172 200 185 159 157 156 153 153 154 149 149 150 148 147 145 154 172 188 190
222 200 197 230 235 223 266 285 299 305 301 296 329 329 307 255 241 272 315 308 320 27 39 89 108 118 140 157 146 151 152 150 148 148 147 151 155 155 151 144 118 68 118 150
Height
1497 1504 1511 1509 1507 1509 1512 1518 1521 1516 1509 1513 1517 1517 1515 1516 1518 1520 1521 1522 1524 1525 1528 1531 1534 1536 1539 1541 1543 1545 1547 1548 1550 1551 1553 1554 1555 1556 1556 1557 1558 1559 1559 1560
1504 1508 1502 1501 1504 1507 1511 1518 1519 1515 1509 1513 1517 1518 1514 1514 1515 1516 1518 1519 1521 1524 1527 1529 1531 1534 1536 1539 1541 1543 1545 1547 1549 1550 1552 1553 1554 1554 1555 1556 1557 1558 1558 1559
1505 1503 1498 1500 1504 1508 1511 1515 1515 1517 1514 1514 1517 1522 1518 1514 1514 1516 1516 1517 1519 1521 1523 1526 1528 1531 1534 1536 1539 1541 1543 1545 1547 1549 1550 1551 1552 1553 1554 1554 1555 1556 1557 1558
1501 1497 1498 1500 1503 1504 1513 1504 1507 1512 1521 1530 1525 1540 1522 1516 1515 1513 1513 1514 1514 1517 1520 1523 1526 1528 1531 1534 1537 1539 1541 1543 1545 1547 1548 1549 1550 1551 1552 1553 1553 1555 1556 1556
1501 1496 1497 1500 1499 1500 1504 1502 1507 1513 1522 1532 1530 1539 1530 1517 1516 1510 1508 1509 1510 1512 1515 1519 1522 1525 1528 1532 1534 1537 1539 1541 1543 1545 1546 1548 1549 1550 1551 1551 1552 1553 1554 1555
1496 1493 1493 1494 1493 1496 1499 1507 1515 1524 1531 1544 1534 1539 1535 1521 1512 1505 1503 1504 1506 1508 1512 1515 1519 1523 1526 1529 1532 1535 1537 1538 1540 1542 1544 1545 1547 1548 1549 1549 1550 1551 1552 1553
1500 1495 1491 1491 1496 1498 1502 1521 1542 1545 1554 1549 1534 1536 1530 1508 1503 1501 1500 1501 1503 1506 1508 1512 1515 1519 1522 1526 1529 1532 1534 1536 1538 1540 1542 1543 1545 1546 1547 1548 1548 1549 1550 1551
1511 1512 1494 1490 1494 1501 1505 1515 1540 1552 1556 1549 1536 1536 1518 1502 1500 1498 1498 1499 1501 1503 1506 1508 1511 1515 1519 1523 1526 1529 1531 1533 1536 1538 1539 1541 1543 1544 1545 1546 1547 1548 1548 1549
1512 1510 1491 1488 1487 1493 1507 1514 1515 1536 1543 1548 1542 1529 1511 1500 1498 1497 1497 1497 1499 1501 1503 1506 1509 1513 1517 1520 1523 1526 1528 1531 1533 1535 1537 1539 1540 1541 1543 1544 1545 1546 1547 1547
1499 1506 1494 1489 1488 1493 1497 1508 1524 1537 1551 1553 1540 1533 1525 1508 1503 1499 1498 1497 1498 1499 1502 1504 1508 1511 1515 1518 1521 1524 1526 1528 1530 1532 1534 1536 1537 1539 1540 1541 1542 1543 1544 1545
1494 1504 1501 1495 1496 1500 1503 1511 1522 1534 1535 1549 1551 1536 1506 1503 1500 1499 1497 1496 1497 1499 1501 1503 1506 1509 1513 1516 1519 1521 1523 1525 1527 1529 1531 1532 1534 1536 1538 1539 1540 1541 1542 1543
1496 1506 1512 1503 1494 1493 1495 1504 1515 1527 1534 1540 1542 1531 1497 1498 1497 1497 1496 1497 1497 1498 1500 1503 1505 1507 1511 1514 1517 1519 1521 1523 1525 1527 1529 1530 1532 1534 1535 1536 1538 1539 1540 1541
1495 1507 1518 1515 1509 1500 1500 1503 1509 1518 1532 1541 1540 1524 1496 1496 1496 1496 1496 1496 1497 1498 1499 1502 1504 1506 1509 1512 1515 1517 1519 1521 1523 1526 1527 1529 1530 1532 1533 1535 1536 1537 1538 1539
1490 1506 1514 1519 1515 1505 1503 1503 1507 1513 1528 1533 1527 1516 1502 1498 1496 1495 1495 1495 1496 1497 1498 1500 1503 1505 1507 1510 1513 1515 1517 1519 1522 1524 1526 1527 1529 1531 1532 1534 1535 1535 1536 1537
1492 1505 1504 1504 1501 1500 1500 1501 1503 1505 1511 1517 1513 1511 1502 1496 1495 1493 1493 1494 1495 1496 1497 1499 1501 1503 1506 1508 1511 1513 1515 1518 1520 1522 1524 1525 1527 1529 1531 1532 1533 1533 1534 1535
1496 1504 1504 1504 1501 1500 1501 1499 1499 1500 1502 1505 1504 1505 1496 1494 1493 1492 1493 1493 1494 1495 1497 1498 1500 1502 1504 1506 1508 1511 1513 1515 1518 1520 1522 1524 1526 1527 1529 1530 1531 1532 1532 1533
1502 1505 1511 1513 1506 1501 1508 1500 1499 1499 1498 1500 1504 1501 1495 1494 1491 1490 1490 1491 1492 1493 1495 1497 1499 1500 1502 1504 1506 1508 1511 1514 1516 1518 1520 1522 1524 1525 1527 1528 1529 1530 1530 1530
1502 1508 1515 1517 1510 1517 1506 1495 1495 1497 1498 1497 1496 1495 1494 1492 1489 1487 1488 1489 1490 1491 1493 1495 1497 1499 1501 1502 1505 1507 1510 1512 1514 1516 1517 1520 1521 1523 1524 1525 1526 1527 1528 1528
1497 1505 1516 1522 1520 1513 1502 1495 1496 1498 1500 1496 1496 1494 1492 1490 1488 1487 1487 1488 1488 1489 1490 1492 1494 1497 1499 1501 1503 1505 1507 1509 1511 1513 1514 1516 1518 1519 1521 1522 1523 1524 1525 1525
1499 1502 1512 1519 1518 1520 1504 1493 1492 1496 1501 1495 1494 1493 1492 1491 1493 1489 1486 1486 1485 1486 1487 1489 1491 1493 1496 1498 1501 1503 1505 1506 1508 1509 1512 1514 1514 1515 1517 1518 1519 1521 1522 1523
1507 1510 1513 1516 1515 1509 1497 1492 1491 1504 1501 1493 1493 1492 1492 1491 1491 1488 1485 1484 1484 1484 1485 1486 1488 1490 1493 1495 1498 1500 1502 1503 1505 1507 1510 1511 1512 1513 1514 1516 1517 1518 1519 1520
1509 1512 1514 1516 1516 1512 1494 1493 1497 1497 1491 1490 1490 1490 1490 1489 1487 1485 1483 1483 1482 1482 1483 1484 1485 1488 1490 1492 1495 1496 1498 1500 1503 1504 1506 1508 1509 1510 1511 1513 1514 1515 1517 1518
1507 1506 1507 1507 1506 1497 1494 1494 1492 1491 1490 1489 1488 1488 1488 1487 1485 1484 1482 1481 1481 1481 1481 1483 1484 1486 1487 1489 1491 1492 1494 1497 1499 1500 1502 1505 1506 1507 1509 1510 1512 1513 1514 1515
1503 1501 1502 1502 1496 1494 1492 1491 1490 1489 1488 1487 1487 1487 1486 1486 1485 1483 1482 1481 1480 1480 1480 1481 1482 1483 1485 1486 1488 1491 1491 1494 1496 1497 1499 1502 1503 1505 1506 1508 1509 1510 1511 1512
1501 1500 1501 1499 1495 1493 1490 1489 1488 1488 1487 1486 1486 1485 1485 1484 1483 1483 1481 1480 1479 1479 1479 1480 1481 1482 1484 1485 1486 1488 1489 1491 1493 1494 1496 1499 1501 1502 1504 1505 1507 1508 1509 1510
1497 1498 1498 1497 1493 1492 1490 1489 1487 1486 1485 1484 1484 1483 1483 1483 1482 1481 1480 1479 1478 1478 1478 1479 1478 1479 1482 1484 1484 1485 1487 1489 1491 1492 1494 1497 1499 1500 1502 1503 1505 1506 1507 1508